User: anonymous   Login
Location: *
(45.9500°N, 9.0833°E)
Time: 04:04:49
(UTC+00:00)
Language:

Cosmos 1943 Rocket - Orbit

View from above orbital plane
View from above orbital plane
View from above satellite
View from above satellite

Ground track
Ground track

The orbit data is extracted from the following two-line orbital elements,

1 19120U 88039B   21125.43307039 -.00000179  00000-0 -62210-4 0  9995
2 19120  71.0155 208.1604 0021855 179.4707 180.6445 14.19222594707338
Epoch (UTC): 05 May 2021 10:23:37
Eccentricity: 0.0021855
inclination: 71.0155°
perigee height: 812 km
apogee height: 844 km
right ascension of ascending node: 208.1604°
argument of perigee: 179.4707°
revolutions per day: 14.19222594
mean anomaly at epoch: 180.6445°
orbit number at epoch: 70733

The dashed part of the orbit path shows where the satellite is in the earth's shadow,  

DLR